Flag for Norway Weather past 2 weeks in Stavanger, Norway

Now
57 °F

Drizzle. Broken clouds.


Feels Like: 55 °F
Forecast: 54 / 59 °F
Wind: 9 mph from West

Location: Stavanger / Sola

Current Time: Jul 6, 2015 at 11:30:24 AM

Latest Report: Jul 6, 2015 at 10:50 AM


Visibility: N/A

Pressure: 29.77 "Hg

Humidity: 88%

Dew point: 54 °F

Location of StavangerLocation

Historic Weather in Stavanger — Graph

°F

Stavanger temperature yesterday

Maximum temperature yesterday: 68 °F (at 3:50 AM)
Minimum temperature yesterday: 57 °F (at 7:50 PM)
Average temperature yesterday: 61 °F

Past Weeks' High & Low Weather Summary

 TemperatureHumidityPressure
High84 °F (Jul 2, 3:20 PM)100% (Jun 27, 5:20 PM)30.30 "Hg (Jun 27, 5:20 PM)
Low45 °F (Jun 26, 3:50 AM)37% (Jul 2, 2:20 PM)29.68 "Hg (Jun 22, 3:50 PM)
Average59 °F77%30.00 "Hg
* Reported Jun 21 10:20 AM — Jul 6 10:20 AM, Stavanger, Weather by CustomWeather, © 2015

Note: Actual official high and low records may vary slightly from our data, if they occured in-between our weather recording intervals... More about our weather records

Advertising

Stavanger weather history for previous 24 hours

 ConditionsComfort  
Time TempWeatherWind HumidityBarometerVisibility
10:20 AM
Mon, Jul 6
57 °FDrizzle. Partly sunny.9 mph88%29.77 "Hg6 mi
9:50 AM57 °FSprinkles. Partly sunny.12 mph94%29.74 "Hg4 mi
9:20 AM57 °FBroken clouds.9 mph94%29.74 "HgN/A
8:50 AM57 °FBroken clouds.9 mph88%29.74 "HgN/A
8:20 AM57 °FBroken clouds.8 mph88%29.74 "HgN/A
7:50 AM55 °FBroken clouds.9 mph94%29.74 "HgN/A
7:20 AM55 °FSprinkles. Broken clouds.9 mph94%29.74 "HgN/A
6:50 AM55 °FPartly sunny.7 mph94%29.74 "HgN/A
6:20 AM55 °FBroken clouds.3 mph88%29.74 "HgN/A
5:50 AM55 °FBroken clouds.3 mph88%29.74 "HgN/A
5:20 AM55 °FPartly cloudy.5 mph94%29.74 "HgN/A
4:50 AM57 °FPartly cloudy.3 mph88%29.74 "HgN/A
3:50 AM57 °FPassing clouds.2 mph88%29.77 "HgN/A
2:50 AM55 °FPassing clouds.3 mph100%29.77 "Hg6 mi
1:50 AM57 °FPartly cloudy.6 mph94%29.80 "Hg6 mi
12:50 AM57 °FPassing clouds.5 mph94%29.83 "Hg5 mi
12:20 AM57 °FPartly cloudy.1 mph94%29.83 "HgN/A
11:50 PM
Sun, Jul 5
57 °FPartly cloudy.5 mph94%29.83 "HgN/A
11:20 PM57 °FDrizzle. Broken clouds.2 mph94%29.86 "HgN/A
10:50 PM57 °FDrizzle. Partly sunny.3 mph94%29.86 "HgN/A
10:20 PM57 °FFog.3 mph94%29.86 "HgN/A
9:50 PM57 °FFog.2 mph94%29.86 "HgN/A
9:20 PM57 °FFog.1 mph94%29.89 "HgN/A
8:50 PM57 °FPartly sunny.3 mph94%29.89 "Hg1 mi
8:20 PM57 °FFog.5 mph94%29.92 "Hg1 mi
7:50 PM57 °FFog.7 mph94%29.92 "Hg0 mi
7:20 PM59 °FScattered clouds.6 mph94%29.92 "HgN/A
6:50 PM59 °FPartly sunny.7 mph94%29.95 "Hg0 mi
6:20 PM61 °FPartly sunny.5 mph88%29.98 "Hg0 mi
5:50 PM59 °FPartly sunny.7 mph94%29.98 "HgN/A
5:20 PM59 °FFog.8 mph88%30.01 "Hg1 mi
4:50 PM61 °FScattered clouds.9 mph88%30.01 "HgN/A
4:20 PM63 °FLight fog.8 mph83%30.04 "HgN/A
3:50 PM64 °FLight fog.6 mph83%30.01 "HgN/A
3:20 PM61 °FFog.6 mph88%30.04 "HgN/A
2:50 PM61 °FFog.8 mph88%30.04 "Hg1 mi
2:20 PM61 °FFog.9 mph88%30.04 "Hg1 mi
1:50 PM63 °FFog.10 mph83%30.04 "Hg1 mi
1:20 PM68 °FFog.7 mph73%30.07 "HgN/A
12:50 PM66 °FFog.1 mph83%30.04 "HgN/A
11:50 AM63 °FFog.6 mph88%30.07 "Hg5 mi
11:20 AM64 °FFog.7 mph88%30.07 "Hg5 mi
Weather by CustomWeather, © 2015

See weather overviewHow to use our weather pages